Location: Gleizolles
(44.4833°N, 6.7667°E)
Time: 22:01:25
(UTC+00:00)

Cosmos 1300 - Pass Details

Date: 09 April 2020
Orbit: 511 x 515 km, 82.5° (Epoch: 25 May)

Event Time Altitude Azimuth Distance (km) Brightness Sun altitude
Exits shadow 20:17:39 10° 210° (SSW) 1,754 5.3 -21.4°
Reaches altitude 10° 20:17:42 10° 211° (SSW) 1,736 5.3 -21.4°
Maximum altitude 20:21:19 41° 283° (WNW) 753 3.9 -21.9°
Drops below altitude 10° 20:24:59 10° 355° (N) 1,752 5.9 -22.4°
Sets 20:27:13 0° 2° (N) 2,644 6.8 -22.7°
